Weather History for KFRG - February, 2014

Change the Weather History Date:

Sunday, February 9, 2014

  Actual Average Record
Temperature  
Mean Temperature 24 °F -  
Max Temperature 28 °F 38 °F 53 °F (2005)
Min Temperature 19 °F 24 °F 15 °F (2011)
Degree Days  
Heating Degree Days 42    
Moisture  
Dew Point 15 °F    
Average Humidity 69    
Maximum Humidity 100    
Minimum Humidity 40    
Precipitation  
Precipitation 0.08 in - - ()
Sea Level Pressure  
Sea Level Pressure 30.08 in    
Wind  
Wind Speed 4 mph (WNW)    
Max Wind Speed 8 mph    
Max Gust Speed -    
Visibility 6 miles    
Events Snow    
Averages and records for this station are not official NWS values.
T = Trace of Precipitation, MM = Missing Value Source: NWS Daily Summary

Daily Weather History Graph

Daily Weather History Graph

Search for Another Location

Airport or City:

Trip Planner

Search our weather history database for the weather conditions in past years. The results will help you decide how hot, cold, wet, or windy it might be!

Date:

Astronomy

Feb. 09, 2014 Rise Set
Actual Time 6:55 AM EST 5:21 PM EST
Civil Twilight 6:26 AM EST 5:49 PM EST
Nautical Twilight 5:54 AM EST 6:21 PM EST
Astronomical Twilight 5:22 AM EST 6:53 PM EST
Moon 12:58 PM EST (2/9) 2:58 AM EST (2/9)
Length of Visible Light 11h 22m
Length of Day
10h 26m
Waxing Gibbous, 77% of the Moon is Illuminated
Feb 9
Waxing Gibbous
Feb 14
Full
Feb 22
Last Quarter
Mar 1
New
Mar 8
First Quarter

Hourly Weather History & Observations

Time (EST) Temp. Windchill Dew Point Humidity Pressure Visibility Wind Dir Wind Speed Gust Speed Precip Events Conditions
12:53 AM 23.0 °F 17.0 °F 10.9 °F 60% 30.17 in 10.0 mi West 4.6 mph - N/A   Overcast
1:53 AM 23.0 °F 18.4 °F 10.0 °F 58% 30.16 in 10.0 mi NNW 3.5 mph - N/A   Clear
2:53 AM 21.9 °F 14.5 °F 8.1 °F 55% 30.16 in 10.0 mi NW 5.8 mph - N/A   Clear
3:53 AM 19.9 °F 13.4 °F 7.0 °F 57% 30.16 in 10.0 mi WNW 4.6 mph - N/A   Clear
4:53 AM 19.9 °F 13.4 °F 6.1 °F 55% 30.16 in 10.0 mi North 4.6 mph - N/A   Clear
5:53 AM 19.9 °F 13.4 °F 7.0 °F 57% 30.18 in 10.0 mi NNW 4.6 mph - N/A   Mostly Cloudy
6:53 AM 19.9 °F 12.1 °F 6.1 °F 55% 30.18 in 10.0 mi NNW 5.8 mph - N/A   Clear
7:53 AM 19.9 °F 11.1 °F 6.1 °F 55% 30.19 in 10.0 mi NNW 6.9 mph - N/A   Clear
8:53 AM 21.9 °F 13.4 °F 7.0 °F 53% 30.18 in 10.0 mi North 6.9 mph - N/A   Clear
9:53 AM 24.1 °F 18.2 °F 8.1 °F 51% 30.18 in 10.0 mi North 4.6 mph - N/A   Clear
10:53 AM 25.0 °F 17.1 °F 7.0 °F 46% 30.17 in 10.0 mi NNE 6.9 mph - N/A   Clear
11:53 AM 27.0 °F - 7.0 °F 43% 30.14 in 10.0 mi Calm Calm - N/A   Clear
12:53 PM 28.9 °F 25.2 °F 7.0 °F 40% 30.10 in 10.0 mi NNE 3.5 mph - N/A   Clear
1:53 PM 28.0 °F - 8.1 °F 43% 30.07 in 10.0 mi Calm Calm - N/A   Clear
2:53 PM 28.0 °F 22.8 °F 9.0 °F 45% 30.04 in 10.0 mi SSE 4.6 mph - N/A   Clear
3:53 PM 27.0 °F 19.5 °F 10.9 °F 51% 30.04 in 10.0 mi SSW 6.9 mph - N/A   Mostly Cloudy
4:53 PM 27.0 °F 19.5 °F 12.0 °F 53% 30.05 in 10.0 mi SSW 6.9 mph - N/A   Overcast
5:53 PM 27.0 °F 19.5 °F 14.0 °F 58% 30.04 in 10.0 mi SSW 6.9 mph - N/A   Overcast
6:50 PM 26.6 °F 20.0 °F 17.6 °F 69% 30.03 in 4.0 mi SSW 5.8 mph - 0.00 in Snow Light Snow
6:53 PM 26.1 °F 19.4 °F 17.1 °F 69% 30.04 in 4.0 mi WSW 5.8 mph - 0.00 in Snow Light Snow
7:07 PM 24.8 °F 17.9 °F 17.6 °F 74% 30.04 in 1.8 mi WSW 5.8 mph - 0.00 in Snow Light Snow
7:16 PM 24.8 °F 20.5 °F 19.4 °F 80% 30.03 in 1.2 mi SW 3.5 mph - 0.00 in Snow Light Snow
7:34 PM 24.8 °F - 21.2 °F 86% 30.02 in 0.8 mi Calm Calm - 0.01 in Snow Light Snow
7:48 PM 24.8 °F - 21.2 °F 86% 30.03 in 0.8 mi Calm Calm - 0.02 in Snow Light Snow
7:53 PM 24.1 °F - 21.9 °F 91% 30.04 in 0.8 mi Calm Calm - 0.02 in Snow Light Snow
8:41 PM 24.8 °F - 23.0 °F 93% 30.01 in 1.0 mi Calm Calm - 0.04 in Snow Light Snow
8:53 PM 24.1 °F - 23.0 °F 96% 30.02 in 1.0 mi Calm Calm - 0.04 in Snow Light Snow
9:13 PM 24.8 °F - 23.0 °F 93% 30.02 in 0.8 mi Calm Calm - 0.01 in Snow Light Snow
9:27 PM 24.8 °F - 23.0 °F 93% 30.01 in 1.0 mi Calm Calm - 0.02 in Snow Light Snow
9:40 PM 24.8 °F - 24.8 °F 100% 30.01 in 1.2 mi Calm Calm - 0.02 in Snow Light Snow
9:53 PM 25.0 °F 20.7 °F 23.0 °F 92% 30.01 in 1.8 mi WSW 3.5 mph - 0.02 in Snow Light Snow
10:13 PM 26.6 °F 18.2 °F 24.8 °F 93% 30.00 in 3.0 mi West 8.1 mph - 0.00 in Snow Light Snow
10:53 PM 26.1 °F 19.4 °F 23.0 °F 88% 30.01 in 9.0 mi West 5.8 mph - 0.00 in   Overcast
11:48 PM 24.8 °F 17.9 °F 21.2 °F 86% 30.00 in 8.0 mi West 5.8 mph - N/A   Overcast
11:53 PM 25.0 °F 18.1 °F 21.9 °F 88% 30.00 in 8.0 mi West 5.8 mph - N/A   Overcast